Powrót do katalogu

STARLINK-32275

AktywnyŁącznośćVLEO
NORAD 60360·PAYLOAD·🇺🇸 United States

Wystrzelony Aug 4, 2024 z Vandenberg Space Force Base

Loading…

Następne Przeloty (najbliższe 24 godziny)

TLE

ŚwieżeSource: CelesTrak SupGP

Epoka: Sep 14, 2026, 21:32 UTC

1 60360C 24138F   26257.89770833 -.00047995  00000+0 -15436-2 0  2573
2 60360  53.1575 149.2646 0001434  93.8400  34.6081 15.31721072    13

Śledź STARLINK-32275 w czasie rzeczywistym z AllMySat

Download on the App Store